Skip Page Navigation
NASA JPL Caltech
NASA Logo - Jet Propulsion Laboratory + View the NASA Portal
+ Center for Near-Earth Object Studies
JPL Home Earth Solar System Stars & Galaxies Technology
JPL Solar System Dynamics
BODIES ORBITS EPHEMERIDES TOOLS PHYSICAL DATA DISCOVERY FAQ SITE MAP
IMPORTANT: The SSD Announcement email list is now available. Major changes are coming in the near future, including possible hostname and/or URL changes. To be notified of such changes, subscribe to this email list.

Please visit this page for more details.


JPL Small-Body Database Browser
Search: [ help ]  
295430 (2008 KU33)
Classification: Main-belt Asteroid          SPK-ID: 2295430
Ephemeris | Orbit Diagram | Orbital Elements | Mission Design | Physical Parameters | Discovery Circumstances ]

[ show orbit diagram ]
Orbital Elements at Epoch 2458600.5 (2019-Apr-27.0) TDB
Reference: JPL 9 (heliocentric ecliptic J2000)
 Element Value Uncertainty (1-sigma)   Units 
e .1676043081998869 4.398e-08  
a 2.290907044574541 1.4566e-08 au
q 1.906941154218378 1.0047e-07 au
i 5.821922240649887 6.2958e-06 deg
node 174.2292758903681 5.1957e-05 deg
peri 107.1793471461734 5.8033e-05 deg
M 25.07032452717377 2.4131e-05 deg
tp 2458512.300304975533
(2019-Jan-28.80030498)
8.4559e-05 TDB
period 1266.512931429839
3.47
1.2079e-05
3.307e-08
d
yr
n .2842450251128311 2.7109e-09 deg/d
Q 2.674872934930704 1.7007e-08 au
  Orbit Determination Parameters
   # obs. used (total)      157  
   data-arc span      6770 days (18.54 yr)  
   first obs. used      2001-04-15  
   last obs. used      2019-10-28  
   planetary ephem.      DE431  
   SB-pert. ephem.      SB431-N16  
   condition code      0  
   norm. resid. RMS      .57477  
   source      ORB  
   producer      Otto Matic  
   solution date      2019-Nov-08 06:59:54  

Additional Information
 Earth MOID = .899989 au 
 Jupiter MOID = 2.47751 au 
 T_jup = 3.573 
[ show covariance matrix ]

Ephemeris | Orbit Diagram | Orbital Elements | Mission Design | Physical Parameters | Discovery Circumstances ]

Physical Parameter Table
Parameter Symbol Value Units Sigma Reference Notes
absolute magnitude H 17.9   n/a MPO440401  

295430 (2008 KU33)          Discovered 2008-May-29 by Mt. Lemmon Survey at Mount Lemmon
Reference: 20110912/Numbers.arcLast Updated: 2011-09-14
Ephemeris | Orbit Diagram | Orbital Elements | Mission Design | Physical Parameters | Discovery Circumstances ]
ABOUT SSD CREDITS/AWARDS PRIVACY/COPYRIGHT GLOSSARY LINKS
FirstGov
(server date/time)  
NASA Home Page
Site Manager:   Ryan S. Park
Webmaster  Alan B. Chamberlin